Location: Ethel Rock
(53.4667°N, 4.5667°W)
Time: 05:27:03
(UTC+00:00)

COSMOS 2441 - Pass Details

Date: 24 October 2020
Orbit: 707 x 732 km, 98.1° (Epoch: 25 November)

Event Time Altitude Azimuth Distance (km) Brightness Sun altitude
Rises 04:26:26 0° 12° (NNE) 3,156 8.0 -23.7°
Reaches altitude 10° 04:28:44 10° 9° (N) 2,226 7.1 -23.4°
Maximum altitude 04:33:32 60° 291° (WNW) 826 4.3 -22.7°
Enters shadow 04:33:44 59° 279° (W) 830 4.3 -22.7°
